Location: Ethel Rock
(53.4667°N, 4.5667°W)
Time: 04:58:39
(UTC+00:00)

SL-16 R/B - Pass Details

Date: 24 October 2020
Orbit: 843 x 847 km, 71.0° (Epoch: 25 November)

Event Time Altitude Azimuth Distance (km) Brightness Sun altitude
Exits shadow 02:13:35 21° 27° (NNE) 1,828 4.4 -40.9°
Drops below altitude 10° 02:15:21 10° 30° (NNE) 2,477 5.3 -40.7°
Sets 02:17:49 0° 32° (NNE) 3,415 6.2 -40.5°
